TimeAWST,TemperatureF,Dew PointF,Humidity,Sea Level PressureIn,VisibilityMPH,Wind Direction,Wind SpeedMPH,Gust SpeedMPH,PrecipitationIn,Events,Conditions,WindDirDegrees,DateUTC
12:00 AM,80,46,20,29.88,,SSW,9.2,,,,,210,2013-10-01 16:00:00
12:00 AM,80.6,46.4,30,29.89,-9999.0,SSW,9.2,-,N/A,,Unknown,210,2013-10-01 16:00:00
1:00 AM,77.0,46.4,34,29.86,-9999.0,SSW,8.1,-,N/A,,Unknown,210,2013-10-01 17:00:00
2:00 AM,77.0,46.4,34,29.86,-9999.0,SSW,9.2,-,N/A,,Unknown,200,2013-10-01 18:00:00
3:00 AM,77,48,25,29.86,,South,9.2,,,,,180,2013-10-01 19:00:00
3:00 AM,77.0,48.2,36,29.86,-9999.0,South,9.2,-,N/A,,Unknown,180,2013-10-01 19:00:00
4:00 AM,78.8,48.2,34,29.89,-9999.0,South,10.4,-,N/A,,Unknown,190,2013-10-01 20:00:00
5:00 AM,75.2,48.2,38,29.92,-9999.0,SSW,6.9,-,N/A,,Unknown,200,2013-10-01 21:00:00
6:00 AM,77,49,26,29.92,,SSW,9.2,,,,,200,2013-10-01 22:00:00
6:00 AM,77.0,48.2,36,29.92,-9999.0,SSW,9.2,-,N/A,,Unknown,200,2013-10-01 22:00:00
7:00 AM,80.6,48.2,32,29.95,-9999.0,South,9.2,-,N/A,,Unknown,190,2013-10-01 23:00:00
8:00 AM,89.6,42.8,20,29.95,-9999.0,SE,10.4,-,N/A,,Unknown,140,2013-10-02 00:00:00
9:00 AM,97,38,6,29.95,,ESE,15.0,,,,,110,2013-10-02 01:00:00
9:00 AM,96.8,37.4,13,29.95,-9999.0,ESE,15.0,-,N/A,,Unknown,110,2013-10-02 01:00:00
10:00 AM,102.2,37.4,11,29.95,-9999.0,SE,15.0,-,N/A,,Unknown,130,2013-10-02 02:00:00
11:00 AM,102.2,35.6,10,29.92,-9999.0,SE,16.1,-,N/A,,Unknown,130,2013-10-02 03:00:00
12:00 PM,105,37,5,29.87,,SSE,16.1,,,,,160,2013-10-02 04:00:00
12:00 PM,104.0,37.4,10,29.89,-9999.0,SSE,16.1,-,N/A,,Unknown,160,2013-10-02 04:00:00
1:00 PM,104.0,33.8,9,29.86,-9999.0,ESE,12.7,-,N/A,,Unknown,110,2013-10-02 05:00:00
2:00 PM,105.8,37.4,10,29.83,-9999.0,SSE,15.0,-,N/A,,Unknown,160,2013-10-02 06:00:00
3:00 PM,106,38,5,29.81,,SSE,15.0,,,,,150,2013-10-02 07:00:00
3:00 PM,105.8,39.2,10,29.80,-9999.0,SSE,15.0,-,N/A,,Unknown,150,2013-10-02 07:00:00
4:00 PM,105.8,37.4,10,29.80,-9999.0,SSE,11.5,-,N/A,,Unknown,150,2013-10-02 08:00:00
5:00 PM,104.0,35.6,9,29.80,-9999.0,SSE,13.8,-,N/A,,Unknown,150,2013-10-02 09:00:00
6:00 PM,99,36,5,29.82,,South,12.7,,,,,170,2013-10-02 10:00:00
6:00 PM,98.6,35.6,11,29.83,-9999.0,South,12.7,-,N/A,,Unknown,170,2013-10-02 10:00:00
7:00 PM,95.0,37.4,13,29.86,-9999.0,South,11.5,-,N/A,,Unknown,170,2013-10-02 11:00:00
8:00 PM,93.2,37.4,14,29.86,-9999.0,South,10.4,-,N/A,,Unknown,170,2013-10-02 12:00:00
9:00 PM,91,37,8,29.88,,SSE,11.5,,,,,160,2013-10-02 13:00:00
9:00 PM,91.4,37.4,15,29.89,-9999.0,SSE,11.5,-,N/A,,Unknown,160,2013-10-02 13:00:00
10:00 PM,91.4,35.6,14,29.89,-9999.0,SSE,13.8,-,N/A,,Unknown,160,2013-10-02 14:00:00
11:00 PM,91.4,30.2,11,29.89,-9999.0,SSE,13.8,-,N/A,,Unknown,150,2013-10-02 15:00:00